Regional Weather Roundup
Issued by NWS Lake Charles, LA

Home | Current Version | Previous Version | Text Only | Print | Product List | Glossary On
Versions: 1 2 3 4 5 6 7 8 9 10 11 12 13 14 15 16 17 18 19 20 21 22 23 24 25 26 27 28 29 30 31 32 33 34 35 36 37 38 39 40 41 42 43 44 45 46 47 48
000
ASUS44 KLCH 290410
RWRLCH
RWRLCH
REGIONAL WEATHER ROUNDUP
NATIONAL WEATHER SERVICE LAKE CHARLES LA
1100 PM CDT THU MAY 28 2015

Note: "fair" indicates few or no clouds below 12,000 feet with no
significant weather and/or obstructions to visibility.


ACROSS SOUTHEAST TEXAS

CITY           SKY/WX    TMP DP  RH WIND       PRES   REMARKS
BEAUMONT       CLEAR     77  73  87 S9        30.00S
BEAUMONT CITY    N/A     76  74  94 SE7       30.01R
ORANGE         CLEAR     76  74  91 SE3       30.03R
JASPER         CLEAR     78  73  84 CALM      30.04R
$$

ACROSS CENTRAL LOUISIANA

CITY           SKY/WX    TMP DP  RH WIND       PRES   REMARKS
LEESVILLE      CLEAR     73  68  84 E5        30.01R
FULLERTON        N/A     74  68  81 CALM      30.00R
ALEXANDRIA INT MOCLDY    74  70  87 CALM      30.01R
ESLER FIELD    CLOUDY    72  69  90 CALM      30.03R
DERIDDER         N/A     77  73  86 SE3       30.03S
OAKDALE        PTCLDY    73  71  94 CALM      30.03R
OPELOUSAS        N/A     76  71  83 CALM      30.03R
$$

ACROSS SOUTHWEST AND SOUTH CENTRAL LOUISIANA

CITY           SKY/WX    TMP DP  RH WIND       PRES   REMARKS
SULPHUR        CLEAR     77  74  91 S5        30.03R
LAKE CHARLES   CLEAR     77  73  87 CALM      30.02R
CHENNAULT INT  CLEAR     75  73  96 S3        30.02S
CAMERON PHI    PTCLDY    81  73  78 S12       30.05R
DEQUINCY         N/A     73  73 100 SE5       30.02R
JENNINGS         N/A     76  73  89 SE5       30.02S
LAFAYETTE      CLEAR     79  74  84 S3        30.03S
NEW IBERIA     CLEAR     77  74  90 S5        30.03F
ABBEVILLE        N/A     75  73  93 S5        30.03S
PATTERSON      PTCLDY    75  72  88 SE6       30.06S
SALT POINT       N/A     78  75  90 SE5       30.03S
$$

SELECTED SITES ACROSS THE REGION

CITY           SKY/WX    TMP DP  RH WIND       PRES   REMARKS
HOUSTON BUSH   PTCLDY    78  74  87 SE9       29.98S
HOUSTON HOBBY  MOCLDY    78  75  90 SE8       29.97S
GALVESTON      MOCLDY    80  76  87 SE17      30.01R
COLLEGE STAT   MOCLDY    79  73  82 SE10      29.98R
CONROE         CLEAR     74  72  93 E3        30.00S
HUNTSVILLE     CLEAR     78  72  81 S6        30.01R
LUFKIN         CLEAR     78  72  81 SE3       30.01R
SHREVEPORT     PTCLDY    72  67  84 SE6       30.01S
MONROE         CLOUDY    75  72  90 CALM      30.03S
NATCHEZ MS     PTCLDY    75  68  78 E9        30.01F
BATON ROUGE    CLEAR     78  70  76 SE7       30.04S
N.O. INTL ARPT PTCLDY    78  72  81 S9        30.07S
SLIDELL        CLEAR     76  74  93 SE5       30.07F
$$

MARINE REPORTS

STATION/POSITION TIME  TEMP    WIND        PRES    VSBY  WAVE
                       AIR SEA DIR/SP/G                  HT/PER
                 (UTC) (F)     (DEG/KT/KT) (MB)    (MI)  (FT/S)
BUOY 30 S HIGH I 0350   80 81  140/ 17/ 19 1015.1F         3/ 3
SEA RIM ST PARK  0400   80     150/ 14/ 16 1016.6S
PORT ARTHUR      0300      77  150/  7/  9 1016.3R
SABINE PASS N    0300   80 78  160/ 12/ 17 1016.3R
TEXAS POINT      NOT AVBL
CALCASIEU PASS   0300   80 81  170/ 11/ 13   N/A
LK CHARLES BEACH 0300   78 77              1016.6R
MARSH ISLAND     0300   81     160/ 10/ 11   N/A           0
FRESH WATER LOCK 0300   79 82  140/  6/ 10   N/A
AMERADA PASS     0300   78 78  140/  3/  5 1017.4R
$$


USA.gov is the U.S. government's official web portal to all federal, state and local government web resources and services.